Regional Weather Roundup
Issued by NWS

Home | Current Version | Previous Version | Graphics & Text | Print | Product List | Glossary On
Versions: 1 2 3 4 5 6 7 8 9 10 11 12 13 14 15 16 17 18 19 20 21 22 23 24 25 26 27 28
000
ASUS45 KBOU 182010
RWRCO

WEATHER ROUNDUP FOR COLORADO
NATIONAL WEATHER SERVICE DENVER/BOULDER CO
100 PM MST THU JAN 18 2018

NOTE: "FAIR" INDICATES FEW OR NO CLOUDS BELOW 12000 FEET WITH NO
SIGNIFICANT WEATHER AND/OR OBSTRUCTIONS TO VISIBILITY.

COZ001>005-013-030-031-182100-
...NORTHWEST COLORADO...

CITY           SKY/WX    TMP DP  RH WIND       PRES   REMARKS
CRAIG          FAIR      38  17  42 E13       30.22F
HAYDEN         FAIR     N/A N/A N/A E12       30.25F
MEEKER         FAIR      41  22  46 CALM      30.22F
RABBIT EARS PA FAIR      28  19  69 W5        30.27F WCI  23
STEAMBOAT SPGS FAIR      24  15  69 CALM      30.26F
WALDEN         FAIR      37  14  38 SW9       30.23F
$$

COZ006>008-011-182100-
...WEST CENTRAL VALLEYS...

CITY           SKY/WX    TMP DP  RH WIND       PRES   REMARKS
GRAND JUNCTION FAIR      45  16  31 CALM      30.26F
MONTROSE       FAIR      42  14  32 CALM      30.28F
EAGLE          FAIR      32  14  47 CALM      30.31F
RIFLE          FAIR      39  17  41 NW3       30.27F
DELTA          FAIR      44  16  31 CALM      30.28F
NUCLA          FAIR      43  14  31 CALM      30.30F
$$

COZ017>023-064>068-182100-
...SOUTHWEST COLORADO...

CITY           SKY/WX    TMP DP  RH WIND       PRES   REMARKS
DURANGO        FAIR      44  14  29 W8        30.24F
CORTEZ         FAIR      44  20  38 W6        30.27F
PAGOSA SPRINGS FAIR      44  10  25 S6        30.24F
TELLURIDE      FAIR      44   3  18 W10       30.29F
WOLF CREEK PAS FAIR      36   3  25 NW3       30.39F
$$

COZ009-010-012-014-032>034-037-058>063-182100-
...CENTRAL COLORADO...

CITY           SKY/WX    TMP DP  RH WIND       PRES   REMARKS
ASPEN          FAIR      40  15  36 NE5       30.25F
BUENA VISTA    FAIR      47   0  14 SE7       30.18F
COPPER MTN     NOT AVBL
BERTHOUD PASS  FAIR      23  12  63 N7G20     30.32S WCI  15
COTTONWOOD PAS   N/A     50  -6  10 SE5       30.24F
GUNNISON       FAIR      30  11  45 CALM      30.32F
KREMMLING      FAIR      30  12  47 CALM      30.32F
LEADVILLE      FAIR      42  -2  15 VRB3      30.24F
MONARCH PASS   FAIR      32   7  34 SW10      30.42F WCI  24
SALIDA         FAIR      50   4  15 CALM      30.24F
SUNLIGHT       FAIR      34   9  35 SW6       30.34F WCI  29
WILKERSON PASS FAIR      37   1  22 W5        30.28F
$$

COZ069>075-182100-
...SAN LUIS VALLEY/SANGRE DE CRISTO MOUNTAINS...

CITY           SKY/WX    TMP DP  RH WIND       PRES   REMARKS
ALAMOSA        FAIR      41   6  23 VRB3      30.23F
DEL NORTE      FAIR      41   5  22 E5        30.24F
LA VETA PASS   FAIR      36   9  32 MISG        N/A
SAGUACHE       FAIR      41   9  26 S7        30.24F
$$

COZ035-036-038>040-182100-
...NORTHERN COLORADO FRONT RANGE...

CITY           SKY/WX    TMP DP  RH WIND       PRES   REMARKS
DENVER INTL AP PTSUNNY   60   3  10 S6        29.99F
DMNS CITY PARK NOT AVBL
AURORA         PTSUNNY   61   1   9 SW5       30.00F
FRONT RANGE AP PTSUNNY   63   7  11 S6        30.01F
ERIE MUNI ARPT FAIR      56  13  18 CALM      30.04F
BOULDER MUN AP FAIR      54  18  24 CALM      29.98F
CENTENNIAL     PTSUNNY   61   3  10 S8        30.01F
BROOMFIELD     PTSUNNY   57   9  14 S6        30.01F
FORT COLLINS   FAIR      48  22  35 S3        30.00F
LONGMONT       FAIR      55  17  22 CALM      30.00F
$$

COZ041-046-047-076>085-087-088-182100-
...PIKES PEAK/PALMER DIVIDE AND SOUTHERN FOOTHILLS...

CITY           SKY/WX    TMP DP  RH WIND       PRES   REMARKS
COLO. SPRINGS  PTSUNNY   57   9  14 S6        30.07F
A. F. ACADEMY  FAIR      56   6  13 S8        30.06F
SCHRIEVER AFB  FAIR      56   5  13 SW9       30.07F
CHEYENNE MTN   FAIR      53   8  16 SE9       30.03F
ELLICOTT         N/A    N/A N/A N/A SW6       30.06F
FALCON         FAIR      56   1  11 S10G18    30.09F
FORT CARSON    FAIR      57   7  13 S9        30.04F
LIMON          FAIR      60   4  10 S8        30.02F
MONUMENT HILL  FAIR      55   1  11 W7        30.09F
CANON CITY     FAIR      63  10  13 W13       30.03F
WALSENBURG     FAIR      64   7  10 W12       30.07F
TRINIDAD       FAIR      58   3  11 SE6       30.08F
$$

COZ042>045-048>051-090-091-182100-
...NORTHEAST COLORADO...

CITY           SKY/WX    TMP DP  RH WIND       PRES   REMARKS
GREELEY ARPT   FAIR      47  21  35 SW5       30.00F
AKRON          FAIR      57  23  26 SW9       29.98F
BURLINGTON     FAIR      61  10  13 SW8       30.01F
WRAY           FAIR      63  19  19 W7        29.97F
YUMA           FAIR      61  18  18 SW13      29.97F
STERLING       FAIR      52  21  30 SW8       29.96F
HOLYOKE        FAIR      61  21  21 W12       29.96F
FORT MORGAN    FAIR      50  16  25 W6        30.00F
$$

COZ086-089-092>099-182100-
...SOUTHEAST COLORADO...

CITY           SKY/WX    TMP DP  RH WIND       PRES   REMARKS
PUEBLO         FAIR      58  11  15 CALM      30.03F
LA JUNTA       FAIR      57  16  20 W13       30.04F
LAMAR          FAIR      56   8  14 W10       30.03F
SPRINGFIELD      N/A     62  -2   7 SW12      30.04F
$$




USA.gov is the U.S. government's official web portal to all federal, state and local government web resources and services.